Time,TemperatureF,DewpointF,PressureIn,WindDirection,WindDirectionDegrees,WindSpeedMPH,WindSpeedGustMPH,Humidity,HourlyPrecipIn,Conditions,Clouds,dailyrainin,SolarRadiationWatts/m^2,SoftwareType,DateUTC
2013-07-31 00:01:00,86.6,54.0,29.84,ESE,105,0.0,2.0,33,0.00,,,0.00,0,WeatherCatV1.11B39,2013-07-31 07:01:00,
2013-07-31 00:06:00,86.3,54.6,29.84,ESE,105,2.0,2.0,34,0.00,,,0.00,0,WeatherCatV1.11B39,2013-07-31 07:06:00,
2013-07-31 00:11:00,85.5,53.9,29.84,ESE,105,0.0,1.0,34,0.00,,,0.00,0,WeatherCatV1.11B39,2013-07-31 07:11:00,
2013-07-31 00:16:00,84.8,54.1,29.84,ESE,105,0.0,1.0,35,0.00,,,0.00,0,WeatherCatV1.11B39,2013-07-31 07:16:00,
2013-07-31 00:21:00,84.1,54.2,29.84,ESE,105,0.0,1.0,36,0.00,,,0.00,0,WeatherCatV1.11B39,2013-07-31 07:21:00,
2013-07-31 00:26:00,83.7,54.6,29.84,ESE,105,1.0,1.0,37,0.00,,,0.00,0,WeatherCatV1.11B39,2013-07-31 07:26:00,
2013-07-31 00:31:00,84.2,54.3,29.84,ESE,105,0.0,2.0,36,0.00,,,0.00,0,WeatherCatV1.11B39,2013-07-31 07:31:00,
2013-07-31 00:36:00,84.5,54.6,29.84,ESE,105,3.0,3.0,36,0.00,,,0.00,0,WeatherCatV1.11B39,2013-07-31 07:36:00,
2013-07-31 00:41:00,84.6,53.9,29.84,ESE,105,2.0,2.0,35,0.00,,,0.00,0,WeatherCatV1.11B39,2013-07-31 07:41:00,
2013-07-31 00:46:00,84.7,54.8,29.84,ESE,106,0.0,2.0,36,0.00,,,0.00,0,WeatherCatV1.11B39,2013-07-31 07:46:00,
2013-07-31 00:51:00,84.2,54.3,29.84,ESE,105,1.0,2.0,36,0.00,,,0.00,0,WeatherCatV1.11B39,2013-07-31 07:51:00,
2013-07-31 00:56:00,83.5,53.7,29.84,ESE,105,2.0,3.0,36,0.00,,,0.00,0,WeatherCatV1.11B39,2013-07-31 07:56:00,
2013-07-31 01:01:00,83.6,54.5,29.83,ESE,105,1.0,1.0,37,0.00,,,0.00,0,WeatherCatV1.11B39,2013-07-31 08:01:00,
2013-07-31 01:06:00,83.4,53.6,29.83,ESE,105,0.0,1.0,36,0.00,,,0.00,0,WeatherCatV1.11B39,2013-07-31 08:06:00,
2013-07-31 01:11:00,82.6,53.7,29.83,ESE,105,0.0,0.0,37,0.00,,,0.00,0,WeatherCatV1.11B39,2013-07-31 08:11:00,
2013-07-31 01:16:00,82.0,53.9,29.83,ESE,105,0.0,0.0,38,0.00,,,0.00,0,WeatherCatV1.11B39,2013-07-31 08:16:00,
2013-07-31 01:21:00,81.6,54.2,29.83,ESE,105,2.0,2.0,39,0.00,,,0.00,0,WeatherCatV1.11B39,2013-07-31 08:21:00,
2013-07-31 01:26:00,81.8,54.4,29.83,ESE,105,0.0,1.0,39,0.00,,,0.00,0,WeatherCatV1.11B39,2013-07-31 08:26:00,
2013-07-31 01:31:00,81.6,54.2,29.83,ESE,105,0.0,1.0,39,0.00,,,0.00,0,WeatherCatV1.11B39,2013-07-31 08:31:00,
2013-07-31 01:36:00,81.3,54.6,29.84,ESE,105,2.0,2.0,40,0.00,,,0.00,0,WeatherCatV1.11B39,2013-07-31 08:36:00,
2013-07-31 01:41:00,80.9,54.3,29.83,ESE,105,0.0,0.0,40,0.00,,,0.00,0,WeatherCatV1.11B39,2013-07-31 08:41:00,
2013-07-31 01:46:00,80.3,53.8,29.84,ESE,105,0.0,0.0,40,0.00,,,0.00,0,WeatherCatV1.11B39,2013-07-31 08:46:00,
2013-07-31 01:51:00,80.0,54.2,29.84,ESE,105,0.0,1.0,41,0.00,,,0.00,0,WeatherCatV1.11B39,2013-07-31 08:51:00,
2013-07-31 01:56:00,80.1,54.2,29.83,ESE,105,0.0,1.0,41,0.00,,,0.00,0,WeatherCatV1.11B39,2013-07-31 08:56:00,
2013-07-31 02:01:00,79.7,54.6,29.83,ESE,105,0.0,0.0,42,0.00,,,0.00,0,WeatherCatV1.11B39,2013-07-31 09:01:00,
2013-07-31 02:06:00,79.8,54.6,29.83,ESE,105,0.0,1.0,42,0.00,,,0.00,0,WeatherCatV1.11B39,2013-07-31 09:06:00,
2013-07-31 02:11:00,80.5,55.3,29.83,ESE,105,0.0,0.0,42,0.00,,,0.00,0,WeatherCatV1.11B39,2013-07-31 09:11:00,
2013-07-31 02:16:00,80.0,54.8,29.83,ESE,105,0.0,0.0,42,0.00,,,0.00,0,WeatherCatV1.11B39,2013-07-31 09:16:00,
2013-07-31 02:21:00,79.3,54.8,29.83,ESE,105,0.0,0.0,43,0.00,,,0.00,0,WeatherCatV1.11B39,2013-07-31 09:21:00,
2013-07-31 02:26:00,78.9,55.1,29.84,ESE,105,0.0,0.0,44,0.00,,,0.00,0,WeatherCatV1.11B39,2013-07-31 09:26:00,
2013-07-31 02:31:00,78.6,55.5,29.84,ESE,105,0.0,0.0,45,0.00,,,0.00,0,WeatherCatV1.11B39,2013-07-31 09:31:00,
2013-07-31 02:36:00,78.5,55.4,29.84,ESE,105,0.0,2.0,45,0.00,,,0.00,0,WeatherCatV1.11B39,2013-07-31 09:36:00,
2013-07-31 02:41:00,78.4,55.3,29.84,ESE,105,0.0,0.0,45,0.00,,,0.00,0,WeatherCatV1.11B39,2013-07-31 09:41:00,
2013-07-31 02:46:00,78.4,55.3,29.85,ESE,105,0.0,1.0,45,0.00,,,0.00,0,WeatherCatV1.11B39,2013-07-31 09:46:00,
2013-07-31 02:51:00,78.4,55.3,29.85,ESE,105,0.0,1.0,45,0.00,,,0.00,0,WeatherCatV1.11B39,2013-07-31 09:51:00,
2013-07-31 02:56:00,78.4,55.9,29.85,ESE,105,0.0,1.0,46,0.00,,,0.00,0,WeatherCatV1.11B39,2013-07-31 09:56:00,
2013-07-31 03:01:00,79.3,55.5,29.86,East,97,3.0,4.0,44,0.00,,,0.00,0,WeatherCatV1.11B39,2013-07-31 10:01:00,
2013-07-31 03:06:00,79.9,55.4,29.85,East,97,0.0,1.0,43,0.00,,,0.00,0,WeatherCatV1.11B39,2013-07-31 10:06:00,
2013-07-31 03:11:00,80.0,55.5,29.85,East,97,0.0,1.0,43,0.00,,,0.00,0,WeatherCatV1.11B39,2013-07-31 10:11:00,
2013-07-31 03:16:00,80.3,56.4,29.85,East,97,0.0,1.0,44,0.00,,,0.00,0,WeatherCatV1.11B39,2013-07-31 10:16:00,
2013-07-31 03:21:00,81.3,57.3,29.85,East,97,0.0,0.0,44,0.00,,,0.00,0,WeatherCatV1.11B39,2013-07-31 10:21:00,
2013-07-31 03:26:00,80.9,57.5,29.85,East,97,0.0,1.0,45,0.00,,,0.00,0,WeatherCatV1.11B39,2013-07-31 10:26:00,
2013-07-31 03:31:00,80.5,56.6,29.85,East,97,1.0,2.0,44,0.00,,,0.00,0,WeatherCatV1.11B39,2013-07-31 10:31:00,
2013-07-31 03:36:00,80.2,56.9,29.85,East,97,1.0,2.0,45,0.00,,,0.00,0,WeatherCatV1.11B39,2013-07-31 10:36:00,
2013-07-31 03:41:00,80.5,57.2,29.85,East,97,0.0,0.0,45,0.00,,,0.00,0,WeatherCatV1.11B39,2013-07-31 10:41:00,
2013-07-31 03:46:00,80.4,56.5,29.85,East,97,0.0,1.0,44,0.00,,,0.00,0,WeatherCatV1.11B39,2013-07-31 10:46:00,
2013-07-31 03:51:00,80.0,56.7,29.85,East,97,0.0,1.0,45,0.00,,,0.00,0,WeatherCatV1.11B39,2013-07-31 10:51:00,
2013-07-31 03:56:00,79.8,57.2,29.85,East,97,1.0,2.0,46,0.00,,,0.00,0,WeatherCatV1.11B39,2013-07-31 10:56:00,
2013-07-31 04:01:00,80.1,57.4,29.85,East,97,0.0,1.0,46,0.00,,,0.00,0,WeatherCatV1.11B39,2013-07-31 11:01:00,
2013-07-31 04:06:00,80.0,57.3,29.85,East,97,1.0,1.0,46,0.00,,,0.00,0,WeatherCatV1.11B39,2013-07-31 11:06:00,
2013-07-31 04:11:00,79.8,57.2,29.85,East,97,1.0,1.0,46,0.00,,,0.00,0,WeatherCatV1.11B39,2013-07-31 11:11:00,
2013-07-31 04:16:00,79.9,57.2,29.84,East,97,2.0,3.0,46,0.00,,,0.00,0,WeatherCatV1.11B39,2013-07-31 11:16:00,
2013-07-31 04:21:00,80.0,57.3,29.84,East,97,0.0,2.0,46,0.00,,,0.00,0,WeatherCatV1.11B39,2013-07-31 11:21:00,
2013-07-31 04:26:00,80.2,57.5,29.85,East,97,0.0,1.0,46,0.00,,,0.00,0,WeatherCatV1.11B39,2013-07-31 11:26:00,
2013-07-31 04:31:00,80.0,57.3,29.85,East,97,0.0,2.0,46,0.00,,,0.00,0,WeatherCatV1.11B39,2013-07-31 11:31:00,
2013-07-31 04:36:00,80.1,57.4,29.85,East,97,0.0,1.0,46,0.00,,,0.00,0,WeatherCatV1.11B39,2013-07-31 11:36:00,
2013-07-31 04:41:00,80.1,57.4,29.85,East,97,1.0,1.0,46,0.00,,,0.00,0,WeatherCatV1.11B39,2013-07-31 11:41:00,
2013-07-31 04:46:00,80.2,57.5,29.86,East,97,1.0,2.0,46,0.00,,,0.00,0,WeatherCatV1.11B39,2013-07-31 11:46:00,
2013-07-31 04:51:00,80.0,57.3,29.86,East,97,1.0,1.0,46,0.00,,,0.00,0,WeatherCatV1.11B39,2013-07-31 11:51:00,
2013-07-31 04:56:00,80.0,57.9,29.86,East,97,0.0,1.0,47,0.00,,,0.00,0,WeatherCatV1.11B39,2013-07-31 11:56:00,
2013-07-31 05:01:00,80.3,57.6,29.86,East,97,0.0,0.0,46,0.00,,,0.00,0,WeatherCatV1.11B39,2013-07-31 12:01:00,
2013-07-31 05:06:00,80.4,57.7,29.86,East,97,1.0,2.0,46,0.00,,,0.00,0,WeatherCatV1.11B39,2013-07-31 12:06:00,
2013-07-31 05:11:00,80.3,58.2,29.87,East,97,0.0,2.0,47,0.00,,,0.00,0,WeatherCatV1.11B39,2013-07-31 12:11:00,
2013-07-31 05:16:00,80.1,58.0,29.87,East,97,0.0,0.0,47,0.00,,,0.00,0,WeatherCatV1.11B39,2013-07-31 12:16:00,
2013-07-31 05:21:00,79.8,58.3,29.87,East,97,0.0,0.0,48,0.00,,,0.00,0,WeatherCatV1.11B39,2013-07-31 12:21:00,
2013-07-31 05:26:00,79.5,58.1,29.87,East,97,0.0,0.0,48,0.00,,,0.00,0,WeatherCatV1.11B39,2013-07-31 12:26:00,
2013-07-31 05:31:00,79.3,58.5,29.87,East,97,0.0,0.0,49,0.00,,,0.00,0,WeatherCatV1.11B39,2013-07-31 12:31:00,
2013-07-31 05:36:00,79.2,58.4,29.88,East,97,0.0,0.0,49,0.00,,,0.00,0,WeatherCatV1.11B39,2013-07-31 12:36:00,
2013-07-31 05:41:00,79.0,58.2,29.88,East,97,0.0,0.0,49,0.00,,,0.00,0,WeatherCatV1.11B39,2013-07-31 12:41:00,
2013-07-31 05:46:00,78.8,58.6,29.88,East,97,0.0,0.0,50,0.00,,,0.00,0,WeatherCatV1.11B39,2013-07-31 12:46:00,
2013-07-31 05:51:00,78.8,58.6,29.88,East,97,0.0,0.0,50,0.00,,,0.00,7,WeatherCatV1.11B39,2013-07-31 12:51:00,
2013-07-31 05:56:00,78.7,58.5,29.88,East,97,0.0,0.0,50,0.00,,,0.00,11,WeatherCatV1.11B39,2013-07-31 12:56:00,
2013-07-31 06:00:00,78.7,59.0,29.88,East,97,0.0,0.0,51,0.00,,,0.00,14,WeatherCatV1.11B39,2013-07-31 13:00:00,
2013-07-31 06:05:00,78.9,59.2,29.88,East,97,0.0,0.0,51,0.00,,,0.00,18,WeatherCatV1.11B39,2013-07-31 13:05:00,
2013-07-31 06:10:00,79.1,58.8,29.88,East,97,0.0,0.0,50,0.00,,,0.00,21,WeatherCatV1.11B39,2013-07-31 13:10:00,
2013-07-31 06:15:00,79.2,58.9,29.88,East,97,0.0,0.0,50,0.00,,,0.00,25,WeatherCatV1.11B39,2013-07-31 13:15:00,
2013-07-31 06:20:00,79.0,59.3,29.88,East,97,0.0,0.0,51,0.00,,,0.00,28,WeatherCatV1.11B39,2013-07-31 13:20:00,
2013-07-31 06:25:00,79.0,59.3,29.88,East,97,0.0,1.0,51,0.00,,,0.00,30,WeatherCatV1.11B39,2013-07-31 13:25:00,
2013-07-31 06:30:00,79.1,59.4,29.88,East,97,0.0,1.0,51,0.00,,,0.00,32,WeatherCatV1.11B39,2013-07-31 13:30:00,
2013-07-31 06:35:00,79.4,59.7,29.88,East,97,0.0,0.0,51,0.00,,,0.00,35,WeatherCatV1.11B39,2013-07-31 13:35:00,
2013-07-31 06:40:00,79.6,59.9,29.88,East,93,0.0,1.0,51,0.00,,,0.00,39,WeatherCatV1.11B39,2013-07-31 13:40:00,
2013-07-31 06:45:00,79.8,59.5,29.88,ESE,110,0.0,0.0,50,0.00,,,0.00,42,WeatherCatV1.11B39,2013-07-31 13:45:00,
2013-07-31 06:50:00,80.2,59.3,29.88,ESE,118,0.0,1.0,49,0.00,,,0.00,49,WeatherCatV1.11B39,2013-07-31 13:50:00,
2013-07-31 06:55:00,80.6,59.6,29.88,ESE,121,0.0,0.0,49,0.00,,,0.00,60,WeatherCatV1.11B39,2013-07-31 13:55:00,
2013-07-31 07:00:00,80.9,60.5,29.88,ESE,121,0.0,0.0,50,0.00,,,0.00,70,WeatherCatV1.11B39,2013-07-31 14:00:00,
2013-07-31 07:05:00,81.2,60.2,29.88,ESE,121,0.0,1.0,49,0.00,,,0.00,79,WeatherCatV1.11B39,2013-07-31 14:05:00,
2013-07-31 07:10:00,81.4,60.4,29.88,ESE,121,0.0,0.0,49,0.00,,,0.00,91,WeatherCatV1.11B39,2013-07-31 14:10:00,
2013-07-31 07:15:00,81.8,60.2,29.88,ESE,121,0.0,0.0,48,0.00,,,0.00,105,WeatherCatV1.11B39,2013-07-31 14:15:00,
2013-07-31 07:20:00,82.4,61.3,29.88,ESE,121,0.0,0.0,49,0.00,,,0.00,142,WeatherCatV1.11B39,2013-07-31 14:20:00,
2013-07-31 07:25:00,83.3,61.5,29.88,ESE,121,0.0,0.0,48,0.00,,,0.00,146,WeatherCatV1.11B39,2013-07-31 14:25:00,
2013-07-31 07:30:00,83.9,60.3,29.88,ESE,121,0.0,0.0,45,0.00,,,0.00,200,WeatherCatV1.11B39,2013-07-31 14:30:00,
2013-07-31 07:35:00,84.7,59.7,29.88,ESE,121,0.0,0.0,43,0.00,,,0.00,199,WeatherCatV1.11B39,2013-07-31 14:35:00,
2013-07-31 07:40:00,85.2,59.5,29.88,ESE,121,0.0,0.0,42,0.00,,,0.00,257,WeatherCatV1.11B39,2013-07-31 14:40:00,
2013-07-31 07:45:00,85.8,59.3,29.88,ESE,121,0.0,0.0,41,0.00,,,0.00,237,WeatherCatV1.11B39,2013-07-31 14:45:00,
2013-07-31 07:50:00,86.0,58.8,29.88,ESE,121,0.0,1.0,40,0.00,,,0.00,278,WeatherCatV1.11B39,2013-07-31 14:50:00,
2013-07-31 07:55:00,86.5,59.3,29.88,ESE,121,0.0,2.0,40,0.00,,,0.00,350,WeatherCatV1.11B39,2013-07-31 14:55:00,
2013-07-31 08:00:00,87.0,59.0,29.88,ESE,121,0.0,3.0,39,0.00,,,0.00,401,WeatherCatV1.11B39,2013-07-31 15:00:00,
2013-07-31 08:05:00,87.8,59.0,29.88,ESE,123,1.0,3.0,38,0.00,,,0.00,396,WeatherCatV1.11B39,2013-07-31 15:05:00,
2013-07-31 08:10:00,87.9,59.1,29.88,East,94,1.0,3.0,38,0.00,,,0.00,390,WeatherCatV1.11B39,2013-07-31 15:10:00,
2013-07-31 08:15:00,88.1,59.3,29.88,NNE,26,2.0,5.0,38,0.00,,,0.00,434,WeatherCatV1.11B39,2013-07-31 15:15:00,
2013-07-31 08:20:00,88.4,58.8,29.88,NW,304,2.0,4.0,37,0.00,,,0.00,429,WeatherCatV1.11B39,2013-07-31 15:20:00,
2013-07-31 08:25:00,88.5,58.9,29.88,WNW,287,3.0,3.0,37,0.00,,,0.00,327,WeatherCatV1.11B39,2013-07-31 15:25:00,
2013-07-31 08:37:00,88.7,59.0,29.88,WNW,282,3.0,5.0,37,0.00,,,0.00,497,WeatherCatV1.11B39,2013-07-31 15:37:00,
2013-07-31 08:38:00,89.4,59.7,29.87,SW,215,1.0,4.0,37,0.00,,,0.00,492,WeatherCatV1.11B39,2013-07-31 15:38:00,
2013-07-31 08:43:00,90.0,59.4,29.87,WSW,252,3.0,3.0,36,0.00,,,0.00,476,WeatherCatV1.11B39,2013-07-31 15:43:00,
2013-07-31 08:48:00,90.7,60.0,29.87,SW,214,1.0,5.0,36,0.00,,,0.00,503,WeatherCatV1.11B39,2013-07-31 15:48:00,
2013-07-31 08:53:00,90.6,59.2,29.87,SW,218,2.0,4.0,35,0.00,,,0.00,519,WeatherCatV1.11B39,2013-07-31 15:53:00,
2013-07-31 08:58:00,91.2,59.7,29.87,West,269,0.0,4.0,35,0.00,,,0.00,680,WeatherCatV1.11B39,2013-07-31 15:58:00,
2013-07-31 09:03:00,91.6,59.2,29.87,West,271,5.0,5.0,34,0.00,,,0.00,668,WeatherCatV1.11B39,2013-07-31 16:03:00,
2013-07-31 09:08:00,92.2,58.9,29.87,WNW,282,0.0,5.0,33,0.00,,,0.00,724,WeatherCatV1.11B39,2013-07-31 16:08:00,
2013-07-31 09:13:00,91.9,59.5,29.87,West,270,1.0,5.0,34,0.00,,,0.00,701,WeatherCatV1.11B39,2013-07-31 16:13:00,
2013-07-31 09:18:00,93.0,59.6,29.87,WSW,242,2.0,7.0,33,0.00,,,0.00,682,WeatherCatV1.11B39,2013-07-31 16:18:00,
2013-07-31 09:23:00,93.4,59.1,29.87,NW,315,4.0,4.0,32,0.00,,,0.00,680,WeatherCatV1.11B39,2013-07-31 16:23:00,
2013-07-31 09:28:00,94.1,59.7,29.87,SW,231,2.0,5.0,32,0.00,,,0.00,689,WeatherCatV1.11B39,2013-07-31 16:28:00,
2013-07-31 09:33:00,94.3,59.0,29.87,SW,236,2.0,4.0,31,0.00,,,0.00,708,WeatherCatV1.11B39,2013-07-31 16:33:00,
2013-07-31 09:38:00,94.4,59.0,29.87,West,276,4.0,4.0,31,0.00,,,0.00,703,WeatherCatV1.11B39,2013-07-31 16:38:00,
2013-07-31 09:43:00,94.3,59.0,29.87,West,272,3.0,5.0,31,0.00,,,0.00,712,WeatherCatV1.11B39,2013-07-31 16:43:00,
2013-07-31 09:48:00,94.8,58.5,29.87,WSW,243,3.0,6.0,30,0.00,,,0.00,737,WeatherCatV1.11B39,2013-07-31 16:48:00,
2013-07-31 09:53:00,95.1,57.8,29.87,SSW,197,1.0,2.0,29,0.00,,,0.00,735,WeatherCatV1.11B39,2013-07-31 16:53:00,
2013-07-31 09:58:00,96.1,58.6,29.87,SW,220,2.0,5.0,29,0.00,,,0.00,742,WeatherCatV1.11B39,2013-07-31 16:58:00,
2013-07-31 10:03:00,96.7,58.2,29.86,South,183,3.0,7.0,28,0.00,,,0.00,765,WeatherCatV1.11B39,2013-07-31 17:03:00,
2013-07-31 10:08:00,96.6,58.1,29.86,SSW,197,3.0,5.0,28,0.00,,,0.00,661,WeatherCatV1.11B39,2013-07-31 17:08:00,
2013-07-31 10:13:00,97.0,58.4,29.86,SW,216,2.0,6.0,28,0.00,,,0.00,642,WeatherCatV1.11B39,2013-07-31 17:13:00,
2013-07-31 10:18:00,95.8,57.4,29.86,SSW,209,5.0,8.0,28,0.00,,,0.00,425,WeatherCatV1.11B39,2013-07-31 17:18:00,
2013-07-31 10:23:00,96.3,57.8,29.86,WSW,245,3.0,5.0,28,0.00,,,0.00,831,WeatherCatV1.11B39,2013-07-31 17:23:00,
2013-07-31 10:28:00,97.2,57.6,29.86,West,277,1.0,7.0,27,0.00,,,0.00,854,WeatherCatV1.11B39,2013-07-31 17:28:00,
2013-07-31 10:33:00,97.2,56.5,29.86,SSW,201,1.0,3.0,26,0.00,,,0.00,712,WeatherCatV1.11B39,2013-07-31 17:33:00,
2013-07-31 10:38:00,96.9,57.3,29.86,WNW,282,6.0,7.0,27,0.00,,,0.00,863,WeatherCatV1.11B39,2013-07-31 17:38:00,
2013-07-31 10:43:00,97.4,57.8,29.86,WNW,293,4.0,9.0,27,0.00,,,0.00,881,WeatherCatV1.11B39,2013-07-31 17:43:00,
2013-07-31 10:48:00,97.9,57.1,29.85,WSW,241,3.0,5.0,26,0.00,,,0.00,786,WeatherCatV1.11B39,2013-07-31 17:48:00,
2013-07-31 10:53:00,98.9,56.9,29.85,SW,220,2.0,3.0,25,0.00,,,0.00,879,WeatherCatV1.11B39,2013-07-31 17:53:00,
2013-07-31 10:58:00,98.4,56.5,29.85,SW,229,3.0,8.0,25,0.00,,,0.00,884,WeatherCatV1.11B39,2013-07-31 17:58:00,
2013-07-31 11:03:00,98.6,56.6,29.85,SW,230,5.0,6.0,25,0.00,,,0.00,874,WeatherCatV1.11B39,2013-07-31 18:03:00,
2013-07-31 11:08:00,100.4,57.0,29.85,WSW,254,3.0,5.0,24,0.00,,,0.00,896,WeatherCatV1.11B39,2013-07-31 18:08:00,
2013-07-31 11:13:00,100.7,57.2,29.84,West,273,5.0,9.0,24,0.00,,,0.00,907,WeatherCatV1.11B39,2013-07-31 18:13:00,
2013-07-31 11:18:00,100.6,58.3,29.84,SW,235,3.0,6.0,25,0.00,,,0.00,898,WeatherCatV1.11B39,2013-07-31 18:18:00,
2013-07-31 11:23:00,101.4,56.6,29.84,SW,225,5.0,9.0,23,0.00,,,0.00,909,WeatherCatV1.11B39,2013-07-31 18:23:00,
2013-07-31 11:28:00,101.2,56.5,29.84,West,272,4.0,4.0,23,0.00,,,0.00,911,WeatherCatV1.11B39,2013-07-31 18:28:00,
2013-07-31 11:33:00,102.1,57.2,29.84,WSW,249,5.0,7.0,23,0.00,,,0.00,909,WeatherCatV1.11B39,2013-07-31 18:33:00,
2013-07-31 11:38:00,101.2,56.5,29.83,West,259,7.0,7.0,23,0.00,,,0.00,909,WeatherCatV1.11B39,2013-07-31 18:38:00,
2013-07-31 11:43:00,100.9,56.2,29.83,SW,230,8.0,8.0,23,0.00,,,0.00,914,WeatherCatV1.11B39,2013-07-31 18:43:00,
2013-07-31 11:48:00,101.4,56.6,29.83,SW,227,6.0,8.0,23,0.00,,,0.00,921,WeatherCatV1.11B39,2013-07-31 18:48:00,
2013-07-31 11:53:00,102.1,57.2,29.82,SSW,198,0.0,3.0,23,0.00,,,0.00,925,WeatherCatV1.11B39,2013-07-31 18:53:00,
2013-07-31 11:58:00,101.5,55.5,29.82,SW,217,4.0,7.0,22,0.00,,,0.00,928,WeatherCatV1.11B39,2013-07-31 18:58:00,
2013-07-31 12:03:00,102.2,56.1,29.82,SSW,205,6.0,6.0,22,0.00,,,0.00,935,WeatherCatV1.11B39,2013-07-31 19:03:00,
2013-07-31 12:08:00,102.5,56.3,29.82,SW,231,8.0,8.0,22,0.00,,,0.00,939,WeatherCatV1.11B39,2013-07-31 19:08:00,
2013-07-31 12:13:00,103.3,55.7,29.82,WSW,238,5.0,8.0,21,0.00,,,0.00,953,WeatherCatV1.11B39,2013-07-31 19:13:00,
2013-07-31 12:18:00,104.2,55.1,29.81,NW,321,2.0,6.0,20,0.00,,,0.00,1011,WeatherCatV1.11B39,2013-07-31 19:18:00,
2013-07-31 12:23:00,102.8,55.3,29.81,SSW,204,3.0,8.0,21,0.00,,,0.00,803,WeatherCatV1.11B39,2013-07-31 19:23:00,
2013-07-31 12:28:00,102.8,56.6,29.81,NW,317,3.0,6.0,22,0.00,,,0.00,919,WeatherCatV1.11B39,2013-07-31 19:28:00,
2013-07-31 12:33:00,102.7,55.2,29.81,SSW,199,4.0,5.0,21,0.00,,,0.00,1060,WeatherCatV1.11B39,2013-07-31 19:33:00,
2013-07-31 12:38:00,104.0,56.3,29.81,South,184,7.0,8.0,21,0.00,,,0.00,997,WeatherCatV1.11B39,2013-07-31 19:38:00,
2013-07-31 12:43:00,105.9,55.0,29.81,WSW,253,7.0,9.0,19,0.00,,,0.00,1192,WeatherCatV1.11B39,2013-07-31 19:43:00,
2013-07-31 12:48:00,105.1,55.8,29.80,SW,215,3.0,4.0,20,0.00,,,0.00,1190,WeatherCatV1.11B39,2013-07-31 19:48:00,
2013-07-31 12:53:00,105.3,54.6,29.80,SSW,208,3.0,3.0,19,0.00,,,0.00,399,WeatherCatV1.11B39,2013-07-31 19:53:00,
2013-07-31 12:58:00,103.5,54.5,29.80,WSW,241,4.0,12.0,20,0.00,,,0.00,359,WeatherCatV1.11B39,2013-07-31 19:58:00,
2013-07-31 13:03:00,102.2,53.5,29.80,South,176,3.0,5.0,20,0.00,,,0.00,374,WeatherCatV1.11B39,2013-07-31 20:03:00,
2013-07-31 13:08:00,101.5,54.2,29.80,West,278,6.0,9.0,21,0.00,,,0.00,334,WeatherCatV1.11B39,2013-07-31 20:08:00,
2013-07-31 13:13:00,101.1,53.9,29.80,WSW,249,4.0,9.0,21,0.00,,,0.00,445,WeatherCatV1.11B39,2013-07-31 20:13:00,
2013-07-31 13:18:00,101.5,54.2,29.80,West,280,2.0,6.0,21,0.00,,,0.00,385,WeatherCatV1.11B39,2013-07-31 20:18:00,
2013-07-31 13:23:00,101.1,53.9,29.80,SW,236,5.0,9.0,21,0.00,,,0.00,325,WeatherCatV1.11B39,2013-07-31 20:23:00,
2013-07-31 13:28:00,101.6,54.3,29.79,WSW,237,3.0,5.0,21,0.00,,,0.00,323,WeatherCatV1.11B39,2013-07-31 20:28:00,
2013-07-31 13:33:00,101.1,53.9,29.79,South,188,0.0,4.0,21,0.00,,,0.00,278,WeatherCatV1.11B39,2013-07-31 20:33:00,
2013-07-31 13:38:00,100.9,53.7,29.79,WNW,302,7.0,7.0,21,0.00,,,0.00,257,WeatherCatV1.11B39,2013-07-31 20:38:00,
2013-07-31 13:43:00,101.1,55.2,29.79,SSW,207,5.0,10.0,22,0.00,,,0.00,279,WeatherCatV1.11B39,2013-07-31 20:43:00,
2013-07-31 13:48:00,100.5,53.4,29.79,WSW,256,6.0,10.0,21,0.00,,,0.00,297,WeatherCatV1.11B39,2013-07-31 20:48:00,
2013-07-31 13:53:00,100.9,55.0,29.79,SW,225,7.0,8.0,22,0.00,,,0.00,304,WeatherCatV1.11B39,2013-07-31 20:53:00,
2013-07-31 13:58:00,101.2,54.0,29.79,West,263,5.0,8.0,21,0.00,,,0.00,276,WeatherCatV1.11B39,2013-07-31 20:58:00,
2013-07-31 14:03:00,100.5,54.7,29.79,WSW,249,5.0,9.0,22,0.00,,,0.00,264,WeatherCatV1.11B39,2013-07-31 21:03:00,
2013-07-31 14:08:00,100.3,54.5,29.79,WSW,247,10.0,13.0,22,0.00,,,0.00,239,WeatherCatV1.11B39,2013-07-31 21:08:00,
2013-07-31 14:13:00,99.9,55.4,29.79,SW,234,7.0,10.0,23,0.00,,,0.00,225,WeatherCatV1.11B39,2013-07-31 21:13:00,
2013-07-31 14:18:00,99.6,55.2,29.79,South,183,5.0,12.0,23,0.00,,,0.00,195,WeatherCatV1.11B39,2013-07-31 21:18:00,
2013-07-31 14:23:00,99.2,54.8,29.79,South,182,4.0,9.0,23,0.00,,,0.00,165,WeatherCatV1.11B39,2013-07-31 21:23:00,
2013-07-31 14:28:00,99.1,54.7,29.79,SSE,155,6.0,10.0,23,0.00,,,0.00,132,WeatherCatV1.11B39,2013-07-31 21:28:00,
2013-07-31 14:33:00,98.7,55.6,29.80,South,175,8.0,10.0,24,0.00,,,0.00,118,WeatherCatV1.11B39,2013-07-31 21:33:00,
2013-07-31 14:38:00,97.6,57.9,29.81,ESE,119,14.0,14.0,27,0.00,,,0.00,97,WeatherCatV1.11B39,2013-07-31 21:38:00,
2013-07-31 14:43:00,95.5,58.1,29.81,ESE,119,3.0,12.0,29,0.00,,,0.00,91,WeatherCatV1.11B39,2013-07-31 21:43:00,
2013-07-31 14:48:00,94.7,59.3,29.81,SSE,166,5.0,11.0,31,0.00,,,0.00,105,WeatherCatV1.11B39,2013-07-31 21:48:00,
2013-07-31 14:53:00,93.8,59.4,29.81,SE,136,4.0,10.0,32,0.00,,,0.00,114,WeatherCatV1.11B39,2013-07-31 21:53:00,
2013-07-31 14:58:00,92.8,61.1,29.81,East,80,8.0,11.0,35,0.00,,,0.00,109,WeatherCatV1.11B39,2013-07-31 21:58:00,
2013-07-31 15:03:00,91.6,60.0,29.81,ENE,74,6.0,13.0,35,0.00,,,0.00,109,WeatherCatV1.11B39,2013-07-31 22:03:00,
2013-07-31 15:08:00,91.6,60.0,29.80,East,97,4.0,8.0,35,0.00,,,0.00,132,WeatherCatV1.11B39,2013-07-31 22:08:00,
2013-07-31 15:13:00,92.0,59.6,29.80,ESE,120,2.0,6.0,34,0.00,,,0.00,146,WeatherCatV1.11B39,2013-07-31 22:13:00,
2013-07-31 15:18:00,92.4,59.1,29.80,East,93,3.0,8.0,33,0.00,,,0.00,160,WeatherCatV1.11B39,2013-07-31 22:18:00,
2013-07-31 15:23:00,92.4,59.1,29.80,ENE,70,5.0,7.0,33,0.00,,,0.00,183,WeatherCatV1.11B39,2013-07-31 22:23:00,
2013-07-31 15:28:00,92.6,59.2,29.80,NNE,28,6.0,11.0,33,0.00,,,0.00,211,WeatherCatV1.11B39,2013-07-31 22:28:00,
2013-07-31 15:33:00,93.1,59.7,29.79,ENE,76,6.0,9.0,33,0.00,,,0.00,236,WeatherCatV1.11B39,2013-07-31 22:33:00,
2013-07-31 15:38:00,93.4,59.1,29.79,ENE,72,3.0,7.0,32,0.00,,,0.00,251,WeatherCatV1.11B39,2013-07-31 22:38:00,
2013-07-31 15:43:00,93.8,59.4,29.79,NE,51,4.0,9.0,32,0.00,,,0.00,246,WeatherCatV1.11B39,2013-07-31 22:43:00,
2013-07-31 15:48:00,93.9,58.6,29.79,NW,321,9.0,13.0,31,0.00,,,0.00,241,WeatherCatV1.11B39,2013-07-31 22:48:00,
2013-07-31 15:53:00,93.6,58.4,29.78,NE,38,3.0,11.0,31,0.00,,,0.00,221,WeatherCatV1.11B39,2013-07-31 22:53:00,
2013-07-31 15:58:00,93.8,58.5,29.78,NNE,22,5.0,14.0,31,0.00,,,0.00,188,WeatherCatV1.11B39,2013-07-31 22:58:00,
2013-07-31 16:03:00,94.0,58.7,29.78,North,10,10.0,13.0,31,0.00,,,0.00,183,WeatherCatV1.11B39,2013-07-31 23:03:00,
2013-07-31 16:08:00,94.0,57.8,29.78,NNE,15,5.0,11.0,30,0.00,,,0.00,192,WeatherCatV1.11B39,2013-07-31 23:08:00,
2013-07-31 16:13:00,94.1,57.9,29.77,NNE,32,4.0,9.0,30,0.00,,,0.00,204,WeatherCatV1.11B39,2013-07-31 23:13:00,
2013-07-31 16:18:00,94.7,57.4,29.77,North,6,5.0,9.0,29,0.00,,,0.00,204,WeatherCatV1.11B39,2013-07-31 23:18:00,
2013-07-31 16:23:00,95.1,57.8,29.77,North,357,2.0,8.0,29,0.00,,,0.00,214,WeatherCatV1.11B39,2013-07-31 23:23:00,
2013-07-31 16:28:00,94.9,57.6,29.77,North,4,6.0,10.0,29,0.00,,,0.00,225,WeatherCatV1.11B39,2013-07-31 23:28:00,
2013-07-31 16:33:00,95.1,56.8,29.76,NNE,33,4.0,9.0,28,0.00,,,0.00,206,WeatherCatV1.11B39,2013-07-31 23:33:00,
2013-07-31 16:38:00,95.7,56.3,29.76,NNE,19,4.0,10.0,27,0.00,,,0.00,188,WeatherCatV1.11B39,2013-07-31 23:38:00,
2013-07-31 16:43:00,95.7,56.3,29.76,North,10,5.0,13.0,27,0.00,,,0.00,172,WeatherCatV1.11B39,2013-07-31 23:43:00,
2013-07-31 16:48:00,95.6,56.2,29.76,NNE,31,5.0,10.0,27,0.00,,,0.00,172,WeatherCatV1.11B39,2013-07-31 23:48:00,
2013-07-31 16:53:00,95.9,56.5,29.76,NNE,18,5.0,6.0,27,0.00,,,0.00,169,WeatherCatV1.11B39,2013-07-31 23:53:00,
2013-07-31 16:58:00,95.9,55.4,29.76,NE,52,4.0,7.0,26,0.00,,,0.00,172,WeatherCatV1.11B39,2013-07-31 23:58:00,
2013-07-31 17:03:00,96.1,55.6,29.76,NE,36,3.0,7.0,26,0.00,,,0.00,155,WeatherCatV1.11B39,2013-08-01 00:03:00,
2013-07-31 17:08:00,96.3,55.8,29.76,NE,50,3.0,4.0,26,0.00,,,0.00,134,WeatherCatV1.11B39,2013-08-01 00:08:00,
2013-07-31 17:13:00,96.2,55.7,29.76,NE,55,1.0,3.0,26,0.00,,,0.00,107,WeatherCatV1.11B39,2013-08-01 00:13:00,
2013-07-31 17:18:00,96.1,55.6,29.75,NE,56,1.0,3.0,26,0.00,,,0.00,130,WeatherCatV1.11B39,2013-08-01 00:18:00,
2013-07-31 17:23:00,96.4,54.8,29.75,ENE,60,0.0,2.0,25,0.00,,,0.00,163,WeatherCatV1.11B39,2013-08-01 00:23:00,
2013-07-31 17:28:00,97.1,57.5,29.75,East,101,1.0,4.0,27,0.00,,,0.00,329,WeatherCatV1.11B39,2013-08-01 00:28:00,
2013-07-31 17:33:00,96.6,58.1,29.75,ENE,73,3.0,5.0,28,0.00,,,0.00,153,WeatherCatV1.11B39,2013-08-01 00:33:00,
2013-07-31 17:38:00,96.3,58.8,29.75,ESE,106,8.0,8.0,29,0.00,,,0.00,276,WeatherCatV1.11B39,2013-08-01 00:38:00,
2013-07-31 17:43:00,96.5,59.0,29.75,East,97,3.0,5.0,29,0.00,,,0.00,292,WeatherCatV1.11B39,2013-08-01 00:43:00,
2013-07-31 17:48:00,96.3,58.8,29.75,East,82,0.0,3.0,29,0.00,,,0.00,77,WeatherCatV1.11B39,2013-08-01 00:48:00,
2013-07-31 17:53:00,95.6,58.2,29.75,ENE,76,2.0,4.0,29,0.00,,,0.00,102,WeatherCatV1.11B39,2013-08-01 00:53:00,
2013-07-31 17:58:00,95.3,58.9,29.76,East,95,3.0,5.0,30,0.00,,,0.00,84,WeatherCatV1.11B39,2013-08-01 00:58:00,
2013-07-31 18:03:00,95.0,59.6,29.75,ESE,123,3.0,7.0,31,0.00,,,0.00,69,WeatherCatV1.11B39,2013-08-01 01:03:00,
2013-07-31 18:08:00,94.6,60.1,29.75,East,79,3.0,7.0,32,0.00,,,0.00,81,WeatherCatV1.11B39,2013-08-01 01:08:00,
2013-07-31 18:13:00,94.2,59.8,29.75,East,99,4.0,7.0,32,0.00,,,0.00,54,WeatherCatV1.11B39,2013-08-01 01:13:00,
2013-07-31 18:18:00,93.5,60.9,29.75,East,79,6.0,9.0,34,0.00,,,0.00,39,WeatherCatV1.11B39,2013-08-01 01:18:00,
2013-07-31 18:23:00,92.8,61.9,29.75,ESE,104,4.0,5.0,36,0.00,,,0.00,32,WeatherCatV1.11B39,2013-08-01 01:23:00,
2013-07-31 18:28:00,92.1,62.0,29.75,ESE,115,2.0,6.0,37,0.00,,,0.00,28,WeatherCatV1.11B39,2013-08-01 01:28:00,
2013-07-31 18:33:00,91.6,62.3,29.75,ENE,76,2.0,9.0,38,0.00,,,0.00,28,WeatherCatV1.11B39,2013-08-01 01:33:00,
2013-07-31 18:38:00,91.2,62.0,29.76,East,98,4.0,9.0,38,0.00,,,0.00,26,WeatherCatV1.11B39,2013-08-01 01:38:00,
2013-07-31 18:43:00,91.0,61.8,29.75,ESE,105,3.0,8.0,38,0.00,,,0.00,25,WeatherCatV1.11B39,2013-08-01 01:43:00,
2013-07-31 18:48:00,90.8,61.6,29.76,East,82,6.0,8.0,38,0.00,,,0.00,21,WeatherCatV1.11B39,2013-08-01 01:48:00,
2013-07-31 18:53:00,90.7,61.6,29.76,ESE,111,2.0,7.0,38,0.00,,,0.00,18,WeatherCatV1.11B39,2013-08-01 01:53:00,
2013-07-31 18:58:00,90.5,62.1,29.76,ESE,103,2.0,4.0,39,0.00,,,0.00,14,WeatherCatV1.11B39,2013-08-01 01:58:00,
2013-07-31 19:03:00,90.3,61.9,29.76,East,97,10.0,10.0,39,0.00,,,0.00,11,WeatherCatV1.11B39,2013-08-01 02:03:00,
2013-07-31 19:08:00,90.2,61.8,29.76,East,92,3.0,8.0,39,0.00,,,0.00,9,WeatherCatV1.11B39,2013-08-01 02:08:00,
2013-07-31 19:13:00,90.1,61.8,29.76,East,97,1.0,5.0,39,0.00,,,0.00,5,WeatherCatV1.11B39,2013-08-01 02:13:00,
2013-07-31 19:18:00,90.0,61.7,29.76,ESE,116,2.0,5.0,39,0.00,,,0.00,0,WeatherCatV1.11B39,2013-08-01 02:18:00,
2013-07-31 19:23:00,89.8,62.2,29.76,ENE,78,7.0,7.0,40,0.00,,,0.00,0,WeatherCatV1.11B39,2013-08-01 02:23:00,
2013-07-31 19:28:00,89.6,62.0,29.75,East,85,3.0,6.0,40,0.00,,,0.00,0,WeatherCatV1.11B39,2013-08-01 02:28:00,
2013-07-31 19:33:00,89.4,61.9,29.75,East,93,7.0,8.0,40,0.00,,,0.00,0,WeatherCatV1.11B39,2013-08-01 02:33:00,
2013-07-31 19:38:00,89.2,61.7,29.75,ESE,104,4.0,7.0,40,0.00,,,0.00,0,WeatherCatV1.11B39,2013-08-01 02:38:00,
2013-07-31 19:43:00,89.1,61.6,29.75,East,100,7.0,7.0,40,0.00,,,0.00,0,WeatherCatV1.11B39,2013-08-01 02:43:00,
2013-07-31 19:48:00,89.0,61.5,29.75,East,81,3.0,10.0,40,0.00,,,0.00,0,WeatherCatV1.11B39,2013-08-01 02:48:00,
2013-07-31 19:53:00,88.9,61.4,29.76,ESE,114,3.0,8.0,40,0.00,,,0.00,0,WeatherCatV1.11B39,2013-08-01 02:53:00,
2013-07-31 19:58:00,88.9,61.4,29.76,East,95,3.0,7.0,40,0.00,,,0.00,0,WeatherCatV1.11B39,2013-08-01 02:58:00,
2013-07-31 20:03:00,88.8,61.3,29.75,ENE,76,3.0,8.0,40,0.00,,,0.00,0,WeatherCatV1.11B39,2013-08-01 03:03:00,
2013-07-31 20:08:00,88.8,61.3,29.76,SE,126,3.0,5.0,40,0.00,,,0.00,0,WeatherCatV1.11B39,2013-08-01 03:08:00,
2013-07-31 20:13:00,88.7,61.2,29.76,ESE,113,3.0,7.0,40,0.00,,,0.00,0,WeatherCatV1.11B39,2013-08-01 03:13:00,
2013-07-31 20:18:00,88.7,61.2,29.76,East,84,6.0,9.0,40,0.00,,,0.00,0,WeatherCatV1.11B39,2013-08-01 03:18:00,
2013-07-31 20:23:00,88.6,61.1,29.76,ESE,102,4.0,8.0,40,0.00,,,0.00,0,WeatherCatV1.11B39,2013-08-01 03:23:00,
2013-07-31 20:28:00,88.5,61.1,29.77,East,91,4.0,7.0,40,0.00,,,0.00,0,WeatherCatV1.11B39,2013-08-01 03:28:00,
2013-07-31 20:33:00,88.4,61.0,29.77,ESE,118,7.0,8.0,40,0.00,,,0.00,0,WeatherCatV1.11B39,2013-08-01 03:33:00,
2013-07-31 20:38:00,88.5,61.1,29.77,East,101,2.0,8.0,40,0.00,,,0.00,0,WeatherCatV1.11B39,2013-08-01 03:38:00,
2013-07-31 20:43:00,88.6,61.1,29.77,ESE,106,2.0,11.0,40,0.00,,,0.00,0,WeatherCatV1.11B39,2013-08-01 03:43:00,
2013-07-31 20:48:00,88.6,61.1,29.77,East,88,3.0,9.0,40,0.00,,,0.00,0,WeatherCatV1.11B39,2013-08-01 03:48:00,
2013-07-31 20:53:00,88.6,60.4,29.77,East,84,6.0,8.0,39,0.00,,,0.00,0,WeatherCatV1.11B39,2013-08-01 03:53:00,
2013-07-31 20:58:00,88.5,60.3,29.77,East,89,6.0,7.0,39,0.00,,,0.00,0,WeatherCatV1.11B39,2013-08-01 03:58:00,
2013-07-31 21:01:00,88.5,60.3,29.77,East,96,4.0,7.0,39,0.00,,,0.00,0,WeatherCatV1.11B39,2013-08-01 04:01:00,
2013-07-31 21:06:00,88.5,60.3,29.77,ENE,72,1.0,9.0,39,0.00,,,0.00,0,WeatherCatV1.11B39,2013-08-01 04:06:00,
2013-07-31 21:11:00,88.5,59.6,29.77,ESE,109,5.0,7.0,38,0.00,,,0.00,0,WeatherCatV1.11B39,2013-08-01 04:11:00,
2013-07-31 21:16:00,88.4,59.5,29.77,ESE,102,3.0,4.0,38,0.00,,,0.00,0,WeatherCatV1.11B39,2013-08-01 04:16:00,
2013-07-31 21:21:00,88.4,59.5,29.77,East,98,5.0,9.0,38,0.00,,,0.00,0,WeatherCatV1.11B39,2013-08-01 04:21:00,
2013-07-31 21:26:00,88.3,59.4,29.78,East,84,7.0,11.0,38,0.00,,,0.00,0,WeatherCatV1.11B39,2013-08-01 04:26:00,
2013-07-31 21:31:00,88.3,59.4,29.78,East,97,2.0,9.0,38,0.00,,,0.00,0,WeatherCatV1.11B39,2013-08-01 04:31:00,
2013-07-31 21:36:00,88.2,59.3,29.78,East,88,6.0,9.0,38,0.00,,,0.00,0,WeatherCatV1.11B39,2013-08-01 04:36:00,
2013-07-31 21:41:00,88.2,59.3,29.78,East,80,2.0,9.0,38,0.00,,,0.00,0,WeatherCatV1.11B39,2013-08-01 04:41:00,
2013-07-31 21:46:00,88.1,59.3,29.78,East,97,4.0,8.0,38,0.00,,,0.00,0,WeatherCatV1.11B39,2013-08-01 04:46:00,
2013-07-31 21:51:00,88.0,59.2,29.78,East,95,0.0,4.0,38,0.00,,,0.00,0,WeatherCatV1.11B39,2013-08-01 04:51:00,
2013-07-31 21:56:00,87.8,58.2,29.78,East,90,2.0,3.0,37,0.00,,,0.00,0,WeatherCatV1.11B39,2013-08-01 04:56:00,
2013-07-31 22:01:00,87.8,57.5,29.78,East,84,3.0,8.0,36,0.00,,,0.00,0,WeatherCatV1.11B39,2013-08-01 05:01:00,
2013-07-31 22:06:00,87.9,57.6,29.78,East,80,3.0,6.0,36,0.00,,,0.00,0,WeatherCatV1.11B39,2013-08-01 05:06:00,
2013-07-31 22:11:00,87.9,57.6,29.78,ESE,102,0.0,8.0,36,0.00,,,0.00,0,WeatherCatV1.11B39,2013-08-01 05:11:00,
2013-07-31 22:16:00,88.2,57.8,29.78,ESE,120,3.0,7.0,36,0.00,,,0.00,0,WeatherCatV1.11B39,2013-08-01 05:16:00,
2013-07-31 22:21:00,88.4,58.0,29.78,East,89,2.0,7.0,36,0.00,,,0.00,0,WeatherCatV1.11B39,2013-08-01 05:21:00,
2013-07-31 22:26:00,88.4,57.2,29.79,ESE,116,4.0,8.0,35,0.00,,,0.00,0,WeatherCatV1.11B39,2013-08-01 05:26:00,
2013-07-31 22:31:00,88.6,57.4,29.78,East,80,8.0,8.0,35,0.00,,,0.00,0,WeatherCatV1.11B39,2013-08-01 05:31:00,
2013-07-31 22:36:00,88.8,56.8,29.78,ESE,105,5.0,10.0,34,0.00,,,0.00,0,WeatherCatV1.11B39,2013-08-01 05:36:00,
2013-07-31 22:41:00,89.1,57.0,29.78,East,86,10.0,14.0,34,0.00,,,0.00,0,WeatherCatV1.11B39,2013-08-01 05:41:00,
2013-07-31 22:46:00,89.1,57.0,29.79,East,93,5.0,8.0,34,0.00,,,0.00,0,WeatherCatV1.11B39,2013-08-01 05:46:00,
2013-07-31 22:51:00,89.1,57.0,29.78,ESE,107,3.0,3.0,34,0.00,,,0.00,0,WeatherCatV1.11B39,2013-08-01 05:51:00,
2013-07-31 22:56:00,88.9,56.9,29.78,SE,128,2.0,5.0,34,0.00,,,0.00,0,WeatherCatV1.11B39,2013-08-01 05:56:00,
2013-07-31 23:01:00,88.5,56.5,29.79,SE,126,1.0,2.0,34,0.00,,,0.00,0,WeatherCatV1.11B39,2013-08-01 06:01:00,
2013-07-31 23:06:00,87.8,57.5,29.79,SE,126,1.0,2.0,36,0.00,,,0.00,0,WeatherCatV1.11B39,2013-08-01 06:06:00,
2013-07-31 23:11:00,86.5,57.8,29.79,SE,126,0.0,1.0,38,0.00,,,0.00,0,WeatherCatV1.11B39,2013-08-01 06:11:00,
2013-07-31 23:16:00,85.8,57.9,29.79,SE,126,1.0,1.0,39,0.00,,,0.00,0,WeatherCatV1.11B39,2013-08-01 06:16:00,
2013-07-31 23:21:00,85.5,57.7,29.79,WSW,238,0.0,5.0,39,0.00,,,0.00,0,WeatherCatV1.11B39,2013-08-01 06:21:00,
2013-07-31 23:26:00,85.5,57.7,29.79,WSW,238,2.0,2.0,39,0.00,,,0.00,0,WeatherCatV1.11B39,2013-08-01 06:26:00,
2013-07-31 23:31:00,85.9,57.3,29.79,NW,320,4.0,4.0,38,0.00,,,0.00,0,WeatherCatV1.11B39,2013-08-01 06:31:00,
2013-07-31 23:36:00,87.0,57.5,29.78,NE,42,5.0,9.0,37,0.00,,,0.00,0,WeatherCatV1.11B39,2013-08-01 06:36:00,
2013-07-31 23:41:00,88.0,58.4,29.79,ENE,65,2.0,3.0,37,0.00,,,0.00,0,WeatherCatV1.11B39,2013-08-01 06:41:00,
2013-07-31 23:46:00,88.4,58.0,29.79,ENE,57,5.0,11.0,36,0.00,,,0.00,0,WeatherCatV1.11B39,2013-08-01 06:46:00,
2013-07-31 23:51:00,88.7,58.3,29.78,SE,128,5.0,10.0,36,0.00,,,0.00,0,WeatherCatV1.11B39,2013-08-01 06:51:00,
2013-07-31 23:56:00,88.8,58.4,29.79,ENE,71,8.0,11.0,36,0.00,,,0.00,0,WeatherCatV1.11B39,2013-08-01 06:56:00,